Location: Avully
(45.9633°N, 6.0228°E)
Time: 14:28:14
(UTC+00:00)

Cosmos 2369 - Pass Details

Date: 23 May 2024
Orbit: 837 x 856 km, 71.0° (Epoch: 16 June)

Event Time Altitude Azimuth Distance (km) Brightness Sun altitude
Rises 01:16:42 0° 326° (NW) 3,428 7.3 -19.3°
Reaches altitude 10° 01:19:22 10° 317° (NW) 2,490 6.4 -19.1°
Maximum altitude 01:24:24 33° 255° (WSW) 1,406 4.5 -18.7°
Enters shadow 01:25:35 30° 232° (SW) 1,485 4.5 -18.6°
